Flag for Canada Weather past 2 weeks in Prince George, British Columbia, Canada

Now
16 °F

Low clouds.


Feels Like: 7 °F
Forecast: 5 / 22 °F
Wind: 6 mph from North

Location: Prince George

Current Time: Jan 31, 2015 at 2:04:32 PM

Latest Report: Jan 31, 2015 at 1:00 PM


Visibility: 8 mi

Pressure: 30.56 "Hg

Humidity: 93%

Dew point: 14 °F

Location of Prince GeorgeLocation

Historic Weather in Prince George — Graph

°F

Prince George temperature yesterday

Maximum temperature yesterday: 32 °F (at 12:00 AM)
Minimum temperature yesterday: 16 °F (at 11:00 PM)
Average temperature yesterday: 29 °F

Past Weeks' High & Low Weather Summary

 TemperatureHumidityPressure
High43 °F (Jan 25, 2:00 AM)100% (Jan 16, 2:00 PM)30.58 "Hg (Jan 16, 2:00 PM)
Low1 °F (Jan 31, 5:00 AM)57% (Jan 27, 4:00 PM)29.50 "Hg (Jan 18, 6:00 AM)
Average32 °F90%30.10 "Hg
* Reported Jan 16 12:00 Noon — Jan 31 12:51 PM, Prince George, Weather by CustomWeather, © 2014

Note: Actual official high and low records may vary slightly from our data, if they occured in-between our weather recording intervals... More about our weather records

Advertising

Prince George weather history for previous 24 hours

 ConditionsComfort  
Time TempWeatherWind HumidityBarometerVisibility
12:51 PM
Jan 31
16 °FLow clouds.6 mph93%30.56 "Hg7 mi
12:00 PM14 °FLow clouds.5 mph100%30.57 "Hg9 mi
11:00 AM14 °FLow clouds.3 mph92%30.58 "Hg8 mi
10:00 AM12 °FIce fog.7 mph92%30.58 "Hg3 mi
9:51 AM12 °FIce fog.6 mph92%30.57 "Hg5 mi
9:00 AM10 °FLow clouds.2 mph92%30.55 "Hg9 mi
8:00 AM7 °FLow clouds.2 mph92%30.54 "Hg9 mi
7:02 AM7 °FIce fog.No wind92%30.54 "Hg6 mi
6:00 AM1 °FLow clouds.2 mph92%30.54 "Hg9 mi
5:00 AM1 °FClear.No wind92%30.54 "Hg9 mi
4:00 AM9 °FClear.5 mph92%30.52 "Hg9 mi
3:00 AM5 °FClear.2 mph92%30.53 "Hg9 mi
2:00 AM3 °FClear.2 mph92%30.52 "Hg9 mi
1:00 AM14 °FPassing clouds.7 mph85%30.50 "Hg9 mi
12:58 AM14 °FPassing clouds.7 mph85%30.50 "Hg9 mi
12:00 AM16 °FOvercast.6 mph86%30.49 "Hg9 mi
11:00 PM
Jan 30
16 °FClear.5 mph86%30.45 "Hg9 mi
10:00 PM19 °FCold.N/A86%30.43 "HgN/A
9:00 PM21 °FCold.N/A86%30.40 "HgN/A
8:00 PM23 °FCold.N/A93%30.35 "HgN/A
7:00 PM27 °FChilly.N/A93%30.30 "HgN/A
6:00 PM28 °FChilly.N/A93%30.26 "HgN/A
5:04 PM32 °FSnow. Dense fog.10 mph100%30.21 "Hg1 mi
5:01 PM32 °FSnow. Dense fog.9 mph100%30.21 "Hg1 mi
4:00 PM30 °FHeavy snow. Ice fog.5 mph100%30.18 "Hg0 mi
3:00 PM30 °FSnow. Ice fog.No wind100%30.17 "Hg1 mi
2:57 PM30 °FSnow. Ice fog.No wind100%30.17 "Hg1 mi
2:00 PM30 °FLight snow. Low clouds.5 mph100%30.18 "Hg1 mi
Weather by CustomWeather, © 2014

See weather overviewHow to use our weather pages